Other Surface Observations
Issued by NWS Tucson, AZ

Home | Current Version | Previous Version | Text Only | Print | Product List | Glossary On
Versions: 1 2 3 4 5 6 7 8 9 10 11 12 13 14 15 16 17 18 19 20 21 22 23 24 25 26 27 28 29 30 31 32 33 34 35 36 37 38 39 40 41 42 43 44 45 46 47 48 49 50
000
SXUS55 KTWC 300115
OSOTWC

WEATHER ROUNDUP FOR SOUTHEAST ARIZONA
NATIONAL WEATHER SERVICE TUCSON AZ
615 PM MST SUN MAY 29 2016

AZZ504>506-514-300215-
LOCATION       SKY/WX    TMP DP  RH WIND       PRES   REMARKS
TUCSON         SUNNY     93  12   5 S15G21    29.89F
DAVIS-MONTHAN  SUNNY     92  12   5 SW13G22   29.88S
CHILDRENS PARK N/A      N/A N/A   5 SW8               PIMA CO DEQ
ALVERNON/22ND  N/A       95 N/A N/A SW9               PIMA CO DEQ
CHERRY/GLENN   N/A      N/A N/A N/A N/A               PIMA CO DEQ
TANGERINE      N/A       94 N/A N/A SW11              PIMA CO DEQ
CONTL RANCH    N/A       97  15   5 SW11              PIMA CO DEQ
GRANT/1ST      N/A       94  13   5 SW9               PIMA CO DEQ
CRAYCROFT/22ND N/A       94  13   5 SW9               PIMA CO DEQ
GOLFLINKS/KOLB N/A      N/A N/A N/A N/A               PIMA CO DEQ
AJO/12TH       N/A       94  13   5 S10               PIMA CO DEQ
SAGUARO EAST   N/A       34 -25   6 SW11              PIMA CO DEQ
FAIRGROUNDS    N/A       92 N/A N/A SW16              PIMA CO DEQ
SAGUARO        N/A       95  14   5 SW5G18            *SABINO CYN
SAN CARLOS     N/A       94  17   6 W8G19             *SAN CARLOS
GREEN VALLEY   N/A       91  15   6 SW10              PIMA CO DEQ
HORSE CAMP CYN N/A       89  13   6 SW13G27           *ARAVAIPA CYN
RINCON MTNS    NOT AVBL
$$

AZZ509>511-300215-
LOCATION       SKY/WX    TMP DP  RH WIND       PRES   REMARKS
SAFFORD        SUNNY     92  14   5 VRB6      29.86F
STRAY HORSE    N/A       70   9   9 SW6G19            *
TRAIL CABIN    N/A       80  13   8 NW5G15            *N OF GRANVILLE
BLACK HILLS    NOT AVBL
DRY LAKE       N/A       74  14  10 S3G14             *NATANES MTNS
NOON CREEK     NOT AVBL
COLUMBINE      N/A       63  11  13 W6G15             *PINALENO MTNS
GUTHRIE        N/A       79  15   9 SW16G28           *SW OF GUTHRIE
$$

AZZ502-503-513-300215-
LOCATION       SKY/WX    TMP DP  RH WIND       PRES   REMARKS
NOGALES        SUNNY     85  33  15 S16       29.98F
SELLS          N/A       92  16   6 SW12G18           *
SASABE         N/A       89   4   4 SW16G21           *ALTAR VLY
HOPKINS        N/A       74  14  10 SW9G21            *SANTA RITA MTNS
CARR CYN       N/A       79  30  17 W4G10             *W OF HEREFORD
$$

AZZ507-508-512-300215-
LOCATION       SKY/WX    TMP DP  RH WIND       PRES   REMARKS
SIERRA VISTA   SUNNY     82  27  13 SW16G25   30.04S
DOUGLAS        PTSUNNY   87  33  14 SW20G32   29.99S
EMPIRE MTNS    NOT AVBL
MULESHOE RANCH N/A       88   9   5 W10G20            *PRESERVE
HEADQUARTERS   NOT AVBL
$$

.............................NOTES.............................
THIS IS AN AUTOMATED COLLECTIVE WITH MINIMAL QUALITY CONTROL.
PIMA CO DEQ SITES HAVE NONSTANDARD WIND SENSOR HEIGHTS.
PIMA CO DEQ SITES DO NOT REPORT WIND GUSTS.
* INDICATES WIND SENSORS LOCATED AT 20 FEET INSTEAD OF 33 FEET.
..............................KEY..............................
SKY/WX - SKY CONDITION/WEATHER
TMP    - TEMPERATURE IN FAHRENHEIT
DP     - DEWPOINT IN FAHRENHEIT
RH     - RELATIVE HUMIDITY IN PERCENT
WIND   - DIRECTION AND SPEED IN MILES PER HOUR (MPH)
VRB    - VARIABLE WIND DIRECTION
PRES   - MEAN SEA LEVEL PRESSURE IN INCHES OF MERCURY
         F - FALLING PRESSURE   R - RISING PRESSURE
         S - STEADY PRESSURE
VSB    - VISIBILITY IN MILES
HX     - HEAT INDEX IN FAHRENHEIT
WCI    - WIND CHILL INDEX IN FAHRENHEIT
N/A    - NOT AVAILABLE
AFB    - AIR FORCE BASE
         DAVIS-MONTHAN IS DAVIS-MONTHAN AIR FORCE BASE
CYN    - CANYON
MTNS   - MOUNTAINS
NCA    - NATIONAL CONSERVATION AREA
NR     - NEAR
VLY    - VALLEY
CONTL  - CONTINENTAL
PIMA CO DEQ - PIMA COUNTY DEPT OF ENVIRONMENTAL QUALITY



USA.gov is the U.S. government's official web portal to all federal, state and local government web resources and services.